TimeCST,TemperatureF,Dew PointF,Humidity,Sea Level PressureIn,VisibilityMPH,Wind Direction,Wind SpeedMPH,Gust SpeedMPH,PrecipitationIn,Events,Conditions,WindDirDegrees,DateUTC
12:53 AM,30.9,28.0,89,29.78,5.0,NW,6.9,-,N/A,,Overcast,320,2012-12-17 06:53:00
1:25 AM,30.2,28.4,93,29.75,5.0,NW,4.6,-,N/A,,Mostly Cloudy,310,2012-12-17 07:25:00
1:53 AM,30.9,28.0,89,29.77,5.0,NNW,8.1,-,N/A,,Overcast,330,2012-12-17 07:53:00
2:30 AM,30.2,26.6,86,29.75,7.0,NW,5.8,-,N/A,,Overcast,320,2012-12-17 08:30:00
2:53 AM,30.9,27.0,85,29.77,7.0,NNW,6.9,-,N/A,,Overcast,330,2012-12-17 08:53:00
3:53 AM,30.9,27.0,85,29.77,7.0,NNW,5.8,-,N/A,,Overcast,330,2012-12-17 09:53:00
4:53 AM,30.0,27.0,88,29.76,7.0,NNW,6.9,-,N/A,,Overcast,330,2012-12-17 10:53:00
5:53 AM,30.0,26.1,85,29.76,8.0,North,6.9,-,N/A,,Overcast,350,2012-12-17 11:53:00
6:53 AM,30.0,26.1,85,29.77,7.0,NW,6.9,-,N/A,,Overcast,320,2012-12-17 12:53:00
7:53 AM,30.0,26.1,85,29.76,6.0,NNW,6.9,-,N/A,,Overcast,340,2012-12-17 13:53:00
8:14 AM,30.2,26.6,86,29.74,6.0,NNW,6.9,-,N/A,,Overcast,330,2012-12-17 14:14:00
8:53 AM,30.0,26.1,85,29.77,5.0,North,4.6,-,N/A,,Overcast,350,2012-12-17 14:53:00
9:53 AM,30.0,27.0,88,29.77,6.0,Calm,Calm,-,N/A,,Overcast,0,2012-12-17 15:53:00
10:53 AM,30.9,26.1,82,29.76,7.0,NW,3.5,-,N/A,,Overcast,320,2012-12-17 16:53:00
11:49 AM,30.2,26.6,86,29.72,6.0,NNW,4.6,-,N/A,,Haze,330,2012-12-17 17:49:00
11:53 AM,30.9,26.1,82,29.75,6.0,North,4.6,-,N/A,,Haze,350,2012-12-17 17:53:00
12:53 PM,33.1,27.0,78,29.73,6.0,NNE,4.6,-,N/A,,Haze,20,2012-12-17 18:53:00
1:53 PM,33.1,27.0,78,29.71,6.0,Calm,Calm,-,N/A,,Haze,0,2012-12-17 19:53:00
2:32 PM,33.8,28.4,81,29.68,6.0,Calm,Calm,-,N/A,,Haze,0,2012-12-17 20:32:00
2:53 PM,34.0,28.0,79,29.71,6.0,Calm,Calm,-,N/A,,Haze,0,2012-12-17 20:53:00
3:53 PM,35.1,28.0,76,29.70,8.0,North,4.6,-,N/A,,Overcast,360,2012-12-17 21:53:00
6:53 PM,32.0,28.0,85,29.73,7.0,Calm,Calm,-,N/A,,Overcast,0,2012-12-18 00:53:00
7:03 PM,32.0,28.4,87,29.71,8.0,Calm,Calm,-,N/A,,Overcast,0,2012-12-18 01:03:00
7:53 PM,32.0,28.9,88,29.74,8.0,Calm,Calm,-,N/A,,Overcast,0,2012-12-18 01:53:00
8:53 PM,32.0,28.0,85,29.74,6.0,SE,3.5,-,N/A,,Overcast,140,2012-12-18 02:53:00
9:53 PM,32.0,28.0,85,29.73,5.0,SE,3.5,-,N/A,,Overcast,140,2012-12-18 03:53:00
10:16 PM,33.8,28.4,81,29.71,5.0,SSE,4.6,-,N/A,,Haze,150,2012-12-18 04:16:00
10:53 PM,33.1,28.9,85,29.74,5.0,SSE,4.6,-,N/A,,Overcast,160,2012-12-18 04:53:00
11:53 PM,33.1,28.9,85,29.73,5.0,SE,3.5,-,N/A,,Overcast,140,2012-12-18 05:53:00